Chongqing Jiangbei International Airport
ZUCK : now visible

Airfield :











YOU CAN JOIN US ON...

 
LOGIN :

Register | Disclaimer

   EN    FR    IT 

 









Legend :    VFR   Marginal VFR   IFR   Intensive IFR   Very Intensive IFR
Visi :
Ceiling :
>= 8 km
>= 3000ft
5 to 8 km
1000 to 3000 ft
1500m to 5 km
500 to 1000 ft
800 to 1500m
200 to 500 ft
< 800m
< 200 ft
Symbols :   Thunderstorms  Fog  Heavy snow  Heavy precipitations  Wind > 20 kt






- Airport Elevation : 1365 ft
- IATA code : CKG


ZUCK - Chongqing Jiangbei International

CURRENT METAR :
  • 280100Z 14004MPS 6000 SCT011 08/07 Q1032 NOSIG

EXPIRED METARs :
  • 280000Z 09002MPS 4500 -RA BR FEW005 SCT016 OVC030 08/07 Q1033 NOSIG
  • 272300Z 17001MPS 3500 -RA BR FEW003 SCT015 OVC046 08/08 Q1031 NOSIG

TAF TAF ZUCK
Valid from the 28 at 00:00 until the 29 at 00:00 UTC


272101Z 2800/2824 16002MPS 4000 -RA BR SCT015 OVC040 TX12/2807Z TN08/2822Z
ZPKM FIR / Asia



MET'MAP, your aeronautical weather chart ! - Copyright ORBIFLY December 2007 - Disclaimer

ORBIFLY MET'MAP TEAM :

Programming & Development : Alexandra Zaïnal
Concept & original design : Baudouin d'Aumeries
Assistance for programming : Marc-Olivier Méhu
Technical & hardware support : Manuel Goepfert

Contact : metmap@orbifly.com




SOURCES & CREDITS :

   NOAA       Earth
Advisory